Date,TemperatureHighF,TemperatureAvgF,TemperatureLowF,DewpointHighF,DewpointAvgF,DewpointLowF,HumidityHigh,HumidityAvg,HumidityLow,PressureMaxIn,PressureMinIn,WindSpeedMaxMPH,WindSpeedAvgMPH,GustSpeedMaxMPH,PrecipitationSumIn
2013-1-1,35,25,14,24,18,7,86,77,59,30.10,30.00,5,2,13,0.00
2013-1-2,31,18,9,17,9,4,82,69,48,30.14,30.06,6,2,14,0.00
2013-1-3,32,26,17,25,19,10,85,76,68,30.18,30.04,6,3,15,0.00
2013-1-4,38,25,14,25,19,10,86,78,57,30.18,30.08,7,3,24,0.00
2013-1-5,37,29,20,31,25,17,88,83,67,30.19,29.93,6,3,20,0.00
2013-1-6,36,31,23,32,26,20,86,80,72,30.25,29.86,7,3,21,0.01
2013-1-7,40,28,18,28,22,14,88,79,53,30.28,30.07,8,4,21,0.00
2013-1-8,43,34,27,32,28,24,87,79,65,30.13,30.02,5,2,17,0.00
2013-1-9,53,41,27,37,29,20,84,64,34,30.42,29.98,10,4,26,0.01
2013-1-10,43,34,24,35,28,21,88,78,62,30.43,29.90,4,2,11,0.57
2013-1-11,53,50,40,49,45,32,89,81,51,29.88,29.66,7,4,21,0.37
2013-1-12,60,49,35,51,43,33,90,80,65,29.89,29.72,6,3,23,0.18
2013-1-13,36,29,15,34,26,10,92,89,80,30.15,29.78,3,1,11,0.08
2013-1-14,27,18,12,19,13,8,87,80,67,30.37,30.16,0,0,0,0.00
2013-1-15,38,22,13,25,16,10,87,79,59,30.34,30.04,0,0,0,0.01
2013-1-16,40,28,15,28,22,12,89,76,52,30.03,29.80,9,2,24,0.00
2013-1-17,38,30,19,29,20,12,85,67,43,30.31,29.98,5,2,15,0.00
2013-1-18,43,30,17,29,22,12,87,72,55,30.35,29.92,10,4,29,0.00
2013-1-19,52,42,37,38,33,21,77,70,50,29.92,29.69,12,6,28,0.00
2013-1-20,35,21,16,20,8,3,65,55,44,30.20,29.80,13,5,33,0.00
2013-1-21,18,12,5,8,2,-5,84,63,47,30.17,30.04,9,5,24,0.00
2013-1-22,16,8,0,1,-3,-6,72,61,44,30.28,30.16,6,3,15,0.00
2013-1-23,21,16,10,15,7,0,85,65,55,30.24,30.02,8,3,17,0.00
2013-1-24,25,18,14,14,10,7,89,72,54,30.52,30.17,5,1,14,0.00
2013-1-25,28,23,18,22,16,11,89,76,64,30.30,29.91,6,2,14,0.00
2013-1-26,36,24,17,22,17,12,83,73,55,30.33,30.05,5,2,12,0.02
2013-1-27,32,26,21,25,20,17,84,79,72,30.31,30.10,4,2,13,0.00
2013-1-28,50,44,35,46,38,27,88,81,65,29.90,29.80,6,3,17,0.08
2013-1-29,60,57,45,57,40,11,92,62,16,29.82,29.35,8,5,23,0.84
2013-1-30,54,39,24,50,35,19,91,84,74,29.53,29.14,10,3,26,0.32
2013-1-31,24,17,7,19,10,1,84,76,68,30.04,29.53,10,6,24,0.01
2013-2-1,20,11,2,13,3,-3,85,71,54,30.27,30.04,7,4,19,0.00
2013-2-2,28,20,13,24,17,8,93,87,80,30.12,29.90,5,2,14,0.00
2013-2-3,29,17,10,17,11,4,84,75,55,30.12,29.87,8,2,21,0.00
2013-2-4,30,24,20,24,20,16,90,85,75,30.11,29.71,3,1,12,0.00
2013-2-5,32,26,16,29,23,14,92,87,78,30.02,29.76,7,2,16,0.00
2013-2-6,43,32,20,28,24,16,86,72,50,30.21,30.03,5,2,15,0.06
2013-2-7,47,35,29,36,30,26,90,82,65,30.10,28.94,5,1,15,0.26
2013-2-8,34,30,28,30,27,24,93,87,76,30.35,28.98,6,2,20,0.00
2013-2-9,42,32,27,30,26,22,90,78,60,30.37,30.11,5,2,14,0.02
2013-2-10,50,42,31,46,38,25,92,87,76,30.11,29.56,9,4,29,0.17
2013-2-11,49,37,30,43,28,22,80,71,68,30.00,29.57,11,7,34,0.01
2013-2-12,32,28,20,24,21,17,90,76,70,30.09,29.92,8,3,22,0.00
2013-2-13,50,32,19,34,26,17,94,80,53,29.93,29.72,6,2,17,0.00
2013-2-14,43,36,31,34,29,22,89,74,57,29.96,29.68,7,4,23,0.00
2013-2-15,37,30,24,26,20,12,85,66,43,30.15,29.96,5,2,14,0.01
2013-2-16,26,19,13,18,9,4,83,66,45,30.14,30.08,8,3,17,0.00
2013-2-17,35,22,10,15,8,2,73,56,31,30.19,30.05,5,2,10,0.00
2013-2-18,56,40,25,44,30,14,92,69,54,30.05,29.46,12,5,30,0.27
2013-2-19,34,18,13,31,12,6,90,75,66,30.12,29.54,9,3,103,0.01
2013-2-20,30,18,10,18,10,3,80,70,49,30.31,30.12,6,3,15,0.00
2013-2-21,27,26,23,21,19,18,88,77,71,30.33,29.99,10,4,36,0.00
2013-2-22,34,28,22,31,25,19,93,88,76,29.99,29.82,10,4,30,0.00
2013-2-23,37,28,24,34,22,18,91,77,58,29.92,29.41,14,5,35,0.02
2013-2-24,43,25,16,23,17,12,88,75,45,30.08,29.84,6,3,16,0.04
2013-2-25,48,28,19,30,22,16,90,78,48,30.14,29.92,9,2,22,0.00
2013-2-26,34,33,32,31,28,24,92,84,66,29.92,29.45,15,5,36,0.38
2013-2-27,37,33,32,34,31,30,94,92,90,29.62,29.45,6,1,17,0.31
2013-2-28,38,33,30,35,31,27,94,90,83,29.97,29.62,7,2,23,0.40
2013-3-1,39,31,28,29,25,20,92,79,60,30.09,29.95,4,1,13,0.06
2013-3-2,32,28,25,24,21,18,84,75,66,30.10,30.06,9,3,23,0.00
2013-3-3,43,26,16,21,15,12,84,65,30,30.08,30.02,9,3,23,0.01
2013-3-4,40,28,14,28,20,11,89,73,51,30.09,29.96,7,2,19,0.00
2013-3-5,33,30,28,30,28,26,95,91,79,29.96,29.72,8,4,25,0.00
2013-3-6,36,32,28,31,28,25,94,87,79,30.23,29.88,9,4,24,0.01
2013-3-7,46,35,28,30,26,22,89,73,48,30.35,30.22,6,3,14,0.21
2013-3-8,48,31,17,27,22,15,93,71,44,30.45,30.29,6,2,19,0.00
2013-3-9,44,36,27,34,29,21,81,75,60,30.29,29.86,8,3,27,0.00
2013-3-10,57,46,37,48,41,34,94,83,69,29.86,29.64,8,2,27,0.33
2013-3-11,50,41,32,48,38,30,95,91,84,29.76,29.54,12,6,41,0.09
2013-3-12,39,32,28,30,26,21,93,78,56,29.95,29.77,15,4,44,0.01
2013-3-13,40,29,23,22,18,14,87,63,39,30.27,29.95,12,6,33,0.01
2013-3-14,45,31,21,28,19,14,81,63,39,30.27,30.13,8,4,25,0.00
2013-3-15,50,37,28,40,33,27,96,86,60,30.06,29.69,9,2,17,0.14
2013-3-16,37,34,30,36,30,23,96,88,77,30.06,29.63,7,2,21,0.00
2013-3-17,39,32,29,25,22,20,78,67,51,30.15,29.97,10,3,28,0.00
2013-3-18,29,29,28,26,24,22,89,80,76,29.97,29.73,10,7,28,0.00
2013-3-19,44,32,26,31,24,15,81,71,49,30.26,29.92,13,3,32,0.67
2013-3-20,32,23,18,16,10,6,80,56,36,29.92,29.86,16,9,33,0.00
2013-3-21,40,25,14,17,10,6,76,56,36,29.90,29.84,12,6,24,0.00
2013-3-22,48,30,17,20,17,12,84,60,32,29.93,29.85,9,2,21,0.00
2013-3-23,48,34,24,26,23,19,84,67,40,29.99,29.86,5,2,19,0.00
2013-3-24,38,32,28,28,24,22,91,73,55,29.88,29.56,14,6,41,0.00
2013-3-25,42,34,28,31,28,26,91,79,60,30.03,29.60,9,4,30,0.18
2013-3-26,49,37,31,31,28,25,94,72,44,30.23,30.03,10,5,31,0.08
2013-3-27,51,38,28,29,25,19,82,61,37,30.30,30.23,9,4,26,0.00
2013-3-28,36,31,28,31,28,25,94,87,78,30.60,30.16,10,4,24,0.00
2013-3-29,46,35,30,30,26,23,88,73,47,30.72,30.59,7,3,18,0.22
2013-3-30,48,31,17,27,22,15,92,72,43,30.82,30.70,7,2,21,0.00
2013-3-31,59,34,27,34,25,20,80,72,37,30.71,30.05,18,3,45,0.94
2013-4-1,48,31,17,27,22,15,92,72,43,30.34,30.23,7,2,21,0.00
2013-4-2,52,33,26,31,23,10,80,69,19,30.24,30.00,9,2,22,0.94
2013-4-3,51,35,20,26,17,13,75,51,23,30.29,30.14,6,2,18,0.00
2013-4-4,64,44,24,24,20,17,75,43,18,30.18,29.83,10,3,29,0.00
2013-4-5,53,43,34,32,27,21,84,55,29,30.06,29.84,7,4,29,0.00
2013-4-6,72,53,33,43,33,24,74,48,29,30.02,29.53,18,9,60,0.00
2013-4-7,68,54,44,47,41,35,82,64,39,29.83,29.53,28,7,86,0.02
2013-4-8,75,55,44,56,45,35,94,71,48,29.85,29.56,24,7,66,0.21
2013-4-9,81,56,43,61,48,40,91,75,48,29.86,29.67,18,5,42,0.00
2013-4-10,53,44,41,48,41,39,94,91,81,29.80,29.65,15,4,38,0.22
2013-4-11,52,46,42,51,44,40,96,94,92,29.69,29.44,12,5,36,1.25
2013-4-12,46,40,36,41,35,30,94,82,71,29.72,29.46,11,6,44,0.04
2013-4-13,46,37,34,34,31,28,89,79,53,29.81,29.73,13,7,39,0.02
2013-4-14,72,53,39,52,40,31,78,64,46,29.87,29.61,13,5,29,0.00
2013-4-15,70,58,45,58,50,43,94,78,57,29.83,29.62,21,8,44,0.78
2013-4-16,55,47,42,44,39,34,94,74,53,30.11,29.80,7,2,22,0.34
2013-4-17,55,48,43,50,42,34,96,81,69,30.11,29.68,16,6,45,0.74
2013-4-18,69,58,44,64,55,41,97,93,83,29.69,29.36,23,7,48,0.91
2013-4-19,44,38,34,40,31,28,86,75,66,29.76,29.39,17,10,52,0.01
2013-4-20,52,40,31,29,24,17,82,55,33,30.29,29.77,12,5,39,0.00
2013-4-21,58,43,28,31,24,20,71,50,27,30.38,30.21,9,4,29,0.00
2013-4-22,72,54,35,38,34,29,82,51,23,30.21,29.94,9,3,30,0.00
2013-4-23,67,51,38,53,43,36,94,75,55,29.94,29.74,15,4,48,0.43
2013-4-24,55,42,36,36,33,29,93,72,39,30.01,29.75,10,4,236,0.02
2013-4-25,56,44,34,36,31,27,79,62,36,30.20,29.95,15,6,44,0.00
2013-4-26,70,51,32,45,37,27,84,61,39,30.24,30.14,15,5,46,0.00
2013-4-27,74,58,39,49,42,35,90,61,26,30.17,29.88,8,3,33,0.00
2013-4-28,69,58,49,56,51,47,93,81,59,29.88,29.70,6,2,16,0.09
2013-4-29,76,62,46,55,51,44,95,71,46,29.81,29.70,12,4,36,0.00
2013-4-30,88,71,57,61,56,51,81,62,34,29.85,29.72,14,6,33,0.02
2013-5-1,89,73,57,59,56,53,90,59,31,30.01,29.85,9,3,29,0.00
2013-5-2,64,54,41,56,45,37,86,72,55,30.06,29.97,9,4,24,0.12
2013-5-3,65,51,41,55,46,37,94,84,63,29.96,29.80,4,2,14,0.45
2013-5-4,79,65,54,55,50,44,92,61,32,29.90,29.81,9,2,33,0.00
2013-5-5,56,56,56,50,50,50,80,80,80,29.89,29.84,0,0,0,0.00
2013-5-6,80,63,50,52,45,39,77,55,32,29.88,29.82,4,1,14,0.06
2013-5-7,80,64,48,53,46,39,74,54,36,29.91,29.85,4,1,16,0.00
2013-5-8,86,68,53,56,50,44,83,55,30,29.90,29.83,5,1,18,0.00
2013-5-9,80,64,52,59,54,47,94,73,40,29.85,29.69,14,2,34,0.37
2013-5-10,61,49,41,60,47,39,96,92,85,29.82,29.63,8,3,30,0.01
2013-5-11,63,48,38,52,42,34,95,80,57,29.88,29.70,12,3,29,0.00
2013-5-12,61,47,36,34,31,29,79,54,32,29.98,29.88,9,3,31,0.01
2013-5-13,71,54,34,36,31,25,83,46,20,30.04,29.92,7,2,21,0.00
2013-5-14,97,72,51,61,49,31,60,45,24,29.91,29.60,16,5,46,0.00
2013-5-15,88,75,61,61,55,51,71,51,30,29.85,29.69,9,4,29,0.00
2013-5-16,91,71,54,54,48,44,87,50,22,29.96,29.78,4,1,15,0.01
2013-5-17,83,68,58,62,55,45,94,64,46,29.92,29.84,7,1,30,0.07
2013-5-18,85,70,57,64,59,48,94,71,48,29.96,29.85,5,1,22,0.00
2013-5-19,91,76,61,68,63,57,91,68,41,29.87,29.68,8,2,31,0.04
2013-5-20,91,79,71,69,66,60,88,65,36,29.73,29.64,13,5,44,0.02
2013-5-21,85,72,63,68,64,61,96,77,54,29.70,29.58,14,5,42,0.81
2013-5-22,78,70,63,66,62,55,93,78,47,29.75,29.56,12,4,33,0.12
2013-5-23,63,49,40,57,45,36,93,87,70,30.22,29.74,6,3,24,0.13
2013-5-24,67,50,40,42,38,33,90,66,35,30.39,30.22,5,2,20,0.00
2013-5-25,64,50,39,50,41,34,88,73,58,30.37,30.25,4,1,12,0.00
2013-5-26,73,58,43,53,46,39,89,67,38,30.30,30.14,6,1,21,0.01
2013-5-27,63,56,53,58,54,52,95,91,83,30.14,29.97,4,2,21,0.22
2013-5-28,78,73,63,69,60,55,95,65,55,30.26,30.04,10,5,35,0.35
2013-5-29,90,75,63,72,66,61,97,74,51,30.25,29.95,9,3,29,0.08
2013-5-30,88,78,68,71,66,61,84,69,52,30.00,29.86,12,5,42,0.01
2013-5-31,79,71,65,68,65,62,96,83,69,29.93,29.75,8,4,33,0.19
2013-6-1,80,70,61,67,63,58,94,79,61,29.80,29.69,12,5,41,0.28
2013-6-2,65,56,43,61,50,40,94,80,58,30.04,29.73,7,2,22,0.00
2013-6-3,79,57,41,51,44,39,94,65,35,30.10,30.03,5,1,17,0.00
2013-6-4,81,62,46,52,46,40,85,60,31,30.16,30.07,5,1,20,0.00
2013-6-5,85,69,57,54,51,46,76,54,30,30.09,29.90,4,2,23,0.00
2013-6-6,78,64,54,58,50,44,83,62,49,29.91,29.84,6,3,23,0.04
2013-6-7,78,63,53,57,50,41,89,66,40,29.92,29.86,4,1,22,0.00
2013-6-8,82,65,50,57,50,43,85,60,39,30.00,29.90,8,1,18,0.00
2013-6-9,88,72,58,65,57,50,84,61,35,30.00,29.83,7,2,27,0.00
2013-6-10,85,72,64,69,65,62,96,78,55,29.86,29.75,7,2,24,0.64
2013-6-11,90,81,70,66,64,63,83,57,44,29.93,29.83,9,4,20,0.22
2013-6-12,94,74,65,76,69,64,97,87,55,29.91,29.61,12,1,52,1.00
2013-6-13,79,66,56,64,58,52,98,77,49,30.03,29.59,8,2,23,0.05
2013-6-14,84,67,55,62,56,51,93,71,44,30.10,30.00,6,1,18,0.00
2013-6-15,80,68,58,68,62,55,92,81,62,30.07,29.61,111,3,111,0.09
2013-6-16,87,75,67,69,66,64,91,75,50,29.95,29.62,11,4,27,0.05
2013-6-17,92,77,64,68,62,57,95,63,31,29.97,29.88,6,2,20,0.00
2013-6-18,82,69,59,64,59,53,90,71,51,30.07,29.92,8,2,20,0.00
2013-6-19,89,70,58,59,52,46,76,54,33,30.16,30.06,6,2,18,0.00
2013-6-20,93,76,60,67,60,48,73,59,39,30.19,30.11,4,1,22,0.00
2013-6-21,88,75,69,72,66,64,94,76,53,30.17,29.94,7,2,24,0.63
2013-6-22,88,76,69,74,69,64,89,78,61,30.11,29.99,14,2,24,0.01
2013-6-23,92,78,70,74,67,64,81,70,54,30.08,29.99,9,3,32,0.00
2013-6-24,79,79,79,66,66,66,66,66,66,30.05,30.04,4,4,11,0.00
2013-6-25,91,74,67,76,69,65,95,85,59,30.04,29.88,14,2,26,0.00
2013-6-26,84,73,64,74,68,63,98,86,69,29.96,29.80,7,2,34,2.11
2013-6-27,97,78,67,74,69,65,96,77,44,29.86,29.76,7,2,26,0.01
2013-6-28,90,74,65,66,64,60,92,72,39,29.77,29.67,7,2,24,0.02
2013-6-29,78,68,64,66,63,62,94,85,66,29.80,29.65,4,1,18,0.01
2013-6-30,74,70,65,63,61,59,92,73,60,30.01,29.80,9,2,24,0.00
2013-7-1,78,72,68,69,62,54,92,72,55,30.09,29.88,5,1,12,0.00
2013-7-2,68,65,61,60,57,54,92,77,60,30.11,30.06,5,2,14,0.13
2013-7-3,79,68,62,69,63,59,96,86,69,30.11,30.04,4,1,18,0.28
2013-7-4,83,66,58,66,61,57,98,86,56,30.18,30.12,6,1,15,0.00
2013-7-5,89,74,60,70,65,59,97,75,51,30.17,30.08,6,1,17,0.01
2013-7-6,82,74,68,71,68,65,92,82,64,30.14,30.04,4,1,11,0.00
2013-7-7,91,74,68,72,68,66,94,83,49,30.10,30.03,6,1,24,0.00
2013-7-8,87,76,68,75,70,66,94,83,63,30.15,30.01,10,2,34,0.34
2013-7-9,86,79,73,77,74,71,96,85,71,30.06,29.95,7,1,22,0.08
2013-7-10,88,78,62,76,69,58,95,73,51,30.05,29.90,8,2,26,0.19
2013-7-11,88,71,59,66,59,56,96,71,35,30.15,30.06,4,1,23,0.00
2013-7-12,92,71,57,66,60,54,95,71,38,30.20,30.13,4,1,15,0.00
2013-7-13,90,75,60,67,63,57,91,68,43,30.22,30.16,8,2,24,0.00
2013-7-14,95,79,68,74,69,65,91,72,47,30.26,30.20,7,2,23,0.00
2013-7-15,99,83,73,78,73,70,93,74,48,30.33,30.26,4,1,22,0.00
2013-7-16,99,84,73,76,73,71,94,71,44,30.38,30.30,5,1,18,0.00
2013-7-17,100,84,72,75,72,70,93,69,42,30.38,30.23,5,1,17,0.00
2013-7-18,101,85,74,77,74,71,91,70,44,30.25,30.08,6,2,32,0.00
2013-7-19,99,86,75,76,73,69,90,67,39,30.05,29.85,14,4,26,0.00
2013-7-20,97,83,74,73,68,58,79,63,32,29.99,29.85,5,2,18,0.00
2013-7-21,95,79,68,69,67,64,90,68,40,30.03,29.91,4,1,18,0.00
2013-7-22,95,78,69,71,68,66,92,73,41,29.94,29.82,5,2,22,0.01
2013-7-23,83,73,64,69,62,50,85,69,53,30.01,29.75,8,3,29,0.00
2013-7-24,83,67,53,54,50,47,82,59,35,30.10,30.00,7,2,20,0.00
2013-7-25,90,68,54,59,55,51,91,67,32,30.17,30.09,5,1,18,0.00
2013-7-26,80,68,61,64,60,55,89,75,52,30.12,29.93,9,2,24,0.00
2013-7-27,73,65,57,64,56,46,95,75,52,29.97,29.90,10,2,27,0.01
2013-7-28,77,60,51,54,50,46,88,71,40,30.08,29.93,11,4,27,0.02
2013-7-29,86,68,54,62,55,48,84,65,42,30.23,30.07,5,2,20,0.00
2013-7-30,76,67,56,62,59,53,91,76,60,30.25,30.13,3,1,20,0.00
2013-7-31,71,67,63,68,64,61,97,90,81,30.13,30.01,3,0,12,0.04
2013-8-1,92,72,59,66,59,54,100,70,31,30.04,30.00,6,2,24,0.01
2013-8-2,89,68,60,72,63,55,97,84,53,30.02,29.89,7,2,27,1.31
2013-8-3,89,72,60,71,62,54,100,76,35,30.16,29.99,4,1,17,0.01
2013-8-4,88,70,58,64,58,55,94,71,37,30.24,30.16,6,1,17,0.00
2013-8-5,78,67,58,66,58,52,85,75,63,30.19,29.97,8,1,23,0.00
2013-8-6,87,72,64,72,66,61,94,82,57,29.98,29.91,6,2,17,0.02
2013-8-7,90,76,66,77,71,65,98,87,61,29.99,29.87,6,2,18,0.38
2013-8-8,86,72,64,68,64,58,100,78,50,30.06,29.99,7,2,20,0.01
2013-8-9,90,70,60,66,61,58,94,75,40,30.08,30.02,6,1,17,0.00
2013-8-10,93,75,64,69,62,54,96,68,35,30.17,30.08,5,1,17,0.00
2013-8-11,92,73,59,65,59,53,85,64,40,30.18,30.09,5,1,15,0.00
2013-8-12,88,74,65,68,65,62,97,76,49,30.11,29.91,6,2,26,0.39
2013-8-13,79,66,56,67,57,50,98,75,42,30.18,29.97,5,2,24,0.01
2013-8-14,85,62,50,57,51,47,92,70,34,30.26,30.18,5,1,18,0.00
2013-8-15,79,62,50,58,53,48,92,74,47,30.23,30.16,3,1,12,0.00
2013-8-16,91,70,57,60,56,53,92,66,32,30.24,30.17,5,1,20,0.00
2013-8-17,87,69,56,61,57,54,93,69,36,30.29,30.22,7,2,23,0.00
2013-8-18,92,72,58,65,60,56,94,70,37,30.26,30.15,4,1,23,0.00
2013-8-19,92,74,60,65,61,57,94,69,38,30.18,30.09,5,1,15,0.00
2013-8-20,95,76,64,69,65,61,94,72,42,30.19,30.11,6,1,20,0.00
2013-8-21,96,78,65,71,67,63,94,70,40,30.17,30.04,6,2,24,0.00
2013-8-22,76,70,63,72,67,58,97,88,74,30.17,30.04,13,2,42,0.26
2013-8-23,95,74,63,67,62,56,100,72,33,30.22,30.13,5,1,17,0.00
2013-8-24,94,73,59,62,58,54,86,63,33,30.32,30.22,5,1,18,0.00
2013-8-25,96,76,62,67,62,56,85,65,39,30.33,30.21,7,2,22,0.00
2013-8-26,94,78,65,74,67,60,89,72,51,30.23,30.09,7,2,26,0.00
2013-8-27,98,83,74,75,72,69,87,71,43,30.08,29.92,9,3,29,0.00
2013-8-28,82,77,71,73,69,66,96,78,61,30.09,29.91,7,2,23,0.00
2013-8-29,100,79,68,75,70,65,100,78,37,30.13,30.04,9,1,17,0.00
2013-8-30,84,77,68,72,70,66,96,80,66,30.04,29.83,5,1,18,0.09
2013-8-31,91,70,59,90,68,58,96,94,91,29.91,29.87,2,0,9,0.08
2013-9-1,136,48,-39,100,45,-39,100,95,59,30.04,29.98,5,1,11,0.00
2013-9-2,76,67,61,65,60,56,84,78,68,30.19,30.13,3,1,9,0.02
2013-9-3,88,65,58,62,57,54,92,78,39,30.30,30.19,4,1,14,0.00
2013-9-4,78,63,54,61,57,54,98,82,53,30.35,30.27,56,4,56,0.00
2013-9-5,92,70,60,63,57,51,90,67,33,30.46,30.33,9,2,23,0.00
2013-9-6,90,70,56,66,57,47,80,64,43,30.45,30.26,5,1,15,0.00
2013-9-7,90,74,62,68,64,60,95,73,40,30.26,30.12,9,2,26,0.00
2013-9-8,83,73,68,70,67,65,93,81,63,30.24,30.16,8,3,24,0.00
2013-9-9,100,80,66,76,70,63,93,74,44,30.21,30.08,7,2,24,0.00
2013-9-10,101,85,73,70,68,64,87,60,32,30.26,30.14,14,3,34,0.00
2013-9-11,99,79,70,72,70,67,94,75,37,30.29,30.19,10,2,35,0.08
2013-9-12,88,73,63,70,63,54,95,72,32,30.27,30.11,12,3,39,0.00
2013-9-13,76,61,49,54,49,44,86,66,39,30.36,30.26,5,2,24,0.01
2013-9-14,79,58,45,47,44,41,94,64,28,30.41,30.27,5,1,15,0.00
2013-9-15,68,58,32,58,50,31,96,78,62,30.34,30.21,2,0,12,0.02
2013-9-16,80,45,-20,56,35,-21,96,71,42,30.54,30.36,4,1,18,0.00
2013-9-17,78,56,34,55,46,31,91,73,45,30.55,30.35,4,1,17,0.00
2013-9-18,86,68,58,81,58,50,95,71,49,30.35,30.17,6,1,22,0.00
2013-9-19,77,30,-21,76,30,-21,100,100,100,30.21,30.20,1,0,4,0.00
2013-9-20,137,63,-39,100,56,-39,100,81,72,30.08,29.99,11,3,22,0.00
2013-9-21,118,56,-33,97,49,-46,95,79,44,30.11,30.01,12,3,26,0.00
2013-9-22,136,60,-23,100,48,-27,93,69,37,30.28,30.15,7,2,17,0.00
2013-9-23,80,56,44,54,46,40,89,71,37,30.34,30.26,8,2,18,0.00
2013-9-24,81,55,46,54,47,43,91,75,39,30.30,30.15,8,2,24,0.00
2013-9-25,88,61,51,61,52,47,91,74,36,30.19,30.14,5,2,18,0.00
2013-9-26,90,62,50,58,53,48,97,75,32,30.31,30.18,5,1,18,0.00
2013-9-27,90,64,50,55,49,44,88,63,24,30.40,30.30,4,1,20,0.00
2013-9-28,88,68,52,62,56,50,93,68,39,30.34,30.16,6,2,26,0.00
2013-9-29,136,56,-36,100,48,-40,96,77,55,30.25,30.16,5,2,22,0.01
2013-9-30,136,58,-39,100,46,-47,100,69,39,30.23,30.12,7,2,17,0.00
2013-10-3,134,81,39,100,76,39,100,96,85,30.21,30.14,4,2,18,0.00
2013-10-4,137,56,-40,100,50,-40,100,84,59,30.22,30.15,6,2,14,0.00
2013-10-5,104,54,22,65,53,22,98,97,97,30.17,30.17,1,0,9,0.00
2013-10-6,60,30,-36,60,25,-43,100,81,47,30.02,29.92,12,3,20,0.00
2013-10-7,104,13,-40,75,8,-50,92,81,40,30.22,29.99,9,4,26,0.00
2013-10-8,99,56,-24,66,42,-30,83,61,33,30.42,30.36,3,1,15,0.00
2013-10-9,86,50,32,52,40,30,94,72,32,30.48,30.37,6,1,20,0.00
2013-10-10,85,54,35,57,44,34,94,75,37,30.40,30.28,3,0,12,0.00
2013-10-11,89,57,40,58,45,38,92,69,32,30.33,30.21,4,1,15,0.00
2013-10-12,79,59,45,64,52,41,93,80,54,30.38,30.20,9,2,26,0.01
2013-10-13,54,50,46,48,45,42,87,83,80,30.41,30.39,1,0,3,0.00
2013-10-15,63,51,-37,63,48,-39,100,91,81,30.25,30.03,6,2,17,0.00
2013-10-16,44,4,-39,42,0,-41,93,84,75,30.12,30.08,7,3,24,0.00